When you browse on this site, cookies collect data to enhance your experience and personalize the content and advertising you see.
Visit our Privacy Policy to learn more. By continuing to use the site, you agree to this use of cookies and data.
  • In Czech Republic
  • List of Countries
  • For 7 days
  • Water Temperature
  • Weather Map
  • Weather Widgets
  • user-avatar
    Login

    Hourly Weather Grudino

    Today, 19 January, Sunday

    Time Temperature Precipitation Wind Pressure Humidity
    00:00 -3°C° 0 mm 4 mps 745 mmHg 85%
    01:00 -3°C° 0 mm 4 mps 745 mmHg 86%
    02:00 -3°C° 0 mm 4 mps 746 mmHg 92%
    03:00 -3°C° 0 mm 4 mps 746 mmHg 92%
    04:00 -4°C° 0 mm 4 mps 746 mmHg 92%
    05:00 -4°C° 0 mm 4 mps 746 mmHg 93%
    06:00 -3°C° 0 mm 4 mps 747 mmHg 92%
    07:00 -3°C° 0 mm 4 mps 747 mmHg 92%
    08:00 -2°C° 0 mm 5 mps 748 mmHg 91%
    09:00 -2°C° 0 mm 5 mps 748 mmHg 90%
    10:00 -1°C° 0 mm 4 mps 748 mmHg 88%
    11:00 -1°C° 0 mm 4 mps 748 mmHg 87%
    12:00 -1°C° 0 mm 4 mps 748 mmHg 85%
    13:00 -1°C° 0 mm 4 mps 748 mmHg 83%
    14:00 -1°C° 0 mm 4 mps 748 mmHg 81%
    15:00 -1°C° 0 mm 4 mps 748 mmHg 81%
    16:00 -1°C° 0 mm 4 mps 748 mmHg 82%
    17:00 -2°C° 0 mm 5 mps 748 mmHg 83%
    18:00 -2°C° 0 mm 5 mps 748 mmHg 85%
    19:00 -2°C° 0 mm 5 mps 748 mmHg 88%
    20:00 -2°C° 0 mm 5 mps 748 mmHg 90%
    21:00 -2°C° 0 mm 5 mps 748 mmHg 91%
    22:00 -1°C° 0 mm 5 mps 748 mmHg 93%
    23:00 -2°C° 0 mm 6 mps 747 mmHg 94%

    Tomorrow, 20 January, Monday

    Time Temperature Precipitation Wind Pressure Humidity
    00:00 -2°C° 0 mm 6 mps 747 mmHg 91%
    01:00 -2°C° 0 mm 6 mps 748 mmHg 89%
    02:00 -1°C° 0 mm 6 mps 748 mmHg 87%
    03:00 -1°C° 0 mm 6 mps 747 mmHg 89%
    04:00 -2°C° 0 mm 6 mps 747 mmHg 91%
    05:00 -2°C° 0 mm 6 mps 747 mmHg 93%
    06:00 -2°C° 0.1 mm 6 mps 747 mmHg 94%
    07:00 -1°C° 0.1 mm 5 mps 748 mmHg 95%
    08:00 -1°C° 0.1 mm 5 mps 748 mmHg 96%
    09:00 -1°C° 0.2 mm 5 mps 748 mmHg 96%
    10:00 -1°C° 0.2 mm 5 mps 748 mmHg 95%
    11:00 -1°C° 0.2 mm 5 mps 748 mmHg 95%
    12:00 -1°C° 0.1 mm 5 mps 748 mmHg 95%
    13:00 -1°C° 0.1 mm 5 mps 748 mmHg 96%
    14:00 -1°C° 0.1 mm 5 mps 748 mmHg 96%
    15:00 -1°C° 0 mm 5 mps 747 mmHg 95%
    16:00 -1°C° 0 mm 5 mps 747 mmHg 94%
    17:00 -1°C° 0 mm 5 mps 746 mmHg 92%
    18:00 -2°C° 0 mm 6 mps 746 mmHg 90%
    19:00 -2°C° 0 mm 6 mps 746 mmHg 88%
    20:00 -2°C° 0 mm 6 mps 745 mmHg 86%
    21:00 -2°C° 0 mm 6 mps 745 mmHg 86%
    22:00 -3°C° 0 mm 6 mps 744 mmHg 85%
    23:00 -3°C° 0 mm 6 mps 744 mmHg 85%

    Day after tomorrow, 21 January, Tuesday

    Time Temperature Precipitation Wind Pressure Humidity
    00:00 -3°C° 0.1 mm 6 mps 743 mmHg 88%
    01:00 -3°C° 0.1 mm 6 mps 742 mmHg 90%
    02:00 -3°C° 0.1 mm 6 mps 742 mmHg 92%
    03:00 -3°C° 0.6 mm 6 mps 741 mmHg 92%
    04:00 -3°C° 0.6 mm 7 mps 739 mmHg 93%
    05:00 -3°C° 0.6 mm 7 mps 738 mmHg 93%
    06:00 -2°C° 0.4 mm 7 mps 738 mmHg 92%
    07:00 -2°C° 0.4 mm 7 mps 737 mmHg 91%
    08:00 -1°C° 0.4 mm 8 mps 736 mmHg 89%
    09:00 0°C° 0 mm 8 mps 736 mmHg 89%
    10:00 0°C° 0 mm 7 mps 735 mmHg 89%
    11:00 +2°C° 0 mm 7 mps 735 mmHg 89%
    12:00 +2°C° 0.1 mm 7 mps 735 mmHg 88%
    13:00 +2°C° 0.1 mm 7 mps 734 mmHg 87%
    14:00 +2°C° 0.1 mm 7 mps 734 mmHg 87%
    15:00 +2°C° 0 mm 6 mps 734 mmHg 86%
    16:00 +2°C° 0 mm 6 mps 733 mmHg 86%
    17:00 +1°C° 0 mm 6 mps 733 mmHg 86%
    18:00 +1°C° 0.4 mm 5 mps 732 mmHg 89%
    19:00 +1°C° 0.4 mm 5 mps 732 mmHg 93%
    20:00 0°C° 0.4 mm 4 mps 731 mmHg 97%
    21:00 0°C° 0.4 mm 5 mps 731 mmHg 95%
    22:00 -1°C° 0.4 mm 5 mps 730 mmHg 93%
    23:00 -2°C° 0.4 mm 6 mps 730 mmHg 91%

    22 January, Wednesday

    Time Temperature Precipitation Wind Pressure Humidity
    00:00 -3°C° 0 mm 6 mps 730 mmHg 87%
    01:00 -3°C° 0 mm 6 mps 731 mmHg 83%
    02:00 -4°C° 0 mm 6 mps 731 mmHg 79%
    03:00 -4°C° 0 mm 6 mps 731 mmHg 79%
    04:00 -4°C° 0 mm 6 mps 731 mmHg 78%
    05:00 -4°C° 0 mm 6 mps 730 mmHg 78%
    06:00 -4°C° 0 mm 6 mps 730 mmHg 79%
    07:00 -4°C° 0 mm 6 mps 730 mmHg 80%
    08:00 -4°C° 0 mm 6 mps 729 mmHg 81%
    09:00 -4°C° 0.1 mm 6 mps 729 mmHg 79%
    10:00 -4°C° 0.1 mm 6 mps 729 mmHg 77%
    11:00 -4°C° 0.1 mm 6 mps 729 mmHg 75%
    12:00 -4°C° 0.1 mm 6 mps 729 mmHg 75%
    13:00 -4°C° 0.1 mm 6 mps 729 mmHg 75%
    14:00 -4°C° 0.1 mm 5 mps 729 mmHg 74%
    15:00 -4°C° 0 mm 5 mps 729 mmHg 76%
    16:00 -5°C° 0 mm 5 mps 729 mmHg 78%
    17:00 -5°C° 0 mm 5 mps 729 mmHg 80%
    18:00 -5°C° 0 mm 5 mps 729 mmHg 81%
    19:00 -5°C° 0 mm 5 mps 730 mmHg 82%
    20:00 -5°C° 0 mm 5 mps 730 mmHg 83%
    21:00 -5°C° 0 mm 5 mps 730 mmHg 82%
    22:00 -6°C° 0 mm 5 mps 731 mmHg 81%
    23:00 -6°C° 0 mm 5 mps 731 mmHg 80%

    23 January, Thursday

    Time Temperature Precipitation Wind Pressure Humidity
    00:00 -6°C° 0.1 mm 6 mps 732 mmHg 77%
    01:00 -8°C° 0.1 mm 7 mps 732 mmHg 75%
    02:00 -8°C° 0.1 mm 7 mps 733 mmHg 72%
    03:00 -9°C° 0 mm 7 mps 734 mmHg 70%
    04:00 -11°C° 0 mm 7 mps 734 mmHg 68%
    05:00 -11°C° 0 mm 7 mps 734 mmHg 66%
    06:00 -11°C° 0 mm 7 mps 735 mmHg 64%
    07:00 -11°C° 0 mm 7 mps 735 mmHg 62%
    08:00 -11°C° 0 mm 7 mps 736 mmHg 60%
    09:00 -11°C° 0 mm 7 mps 736 mmHg 60%
    10:00 -11°C° 0 mm 7 mps 737 mmHg 60%
    11:00 -11°C° 0 mm 7 mps 737 mmHg 60%
    12:00 -11°C° 0 mm 7 mps 737 mmHg 60%
    13:00 -10°C° 0 mm 6 mps 738 mmHg 60%
    14:00 -10°C° 0 mm 6 mps 738 mmHg 59%
    15:00 -10°C° 0 mm 6 mps 738 mmHg 60%
    16:00 -11°C° 0 mm 5 mps 739 mmHg 61%
    17:00 -10°C° 0 mm 4 mps 739 mmHg 61%
    18:00 -10°C° 0 mm 4 mps 739 mmHg 63%
    19:00 -10°C° 0 mm 4 mps 739 mmHg 65%
    20:00 -9°C° 0 mm 3 mps 740 mmHg 66%
    21:00 -10°C° 0 mm 3 mps 739 mmHg 67%
    22:00 -10°C° 0 mm 3 mps 739 mmHg 68%
    23:00 -9°C° 0 mm 2 mps 739 mmHg 70%

    24 January, Friday

    Time Temperature Precipitation Wind Pressure Humidity
    00:00 -9°C° 0 mm 3 mps 739 mmHg 73%
    01:00 -9°C° 0 mm 3 mps 738 mmHg 77%
    02:00 -9°C° 0 mm 4 mps 737 mmHg 81%
    03:00 -9°C° 0 mm 4 mps 736 mmHg 85%
    04:00 -8°C° 0 mm 5 mps 735 mmHg 88%
    05:00 -8°C° 0 mm 5 mps 734 mmHg 92%
    06:00 -7°C° 0.4 mm 5 mps 733 mmHg 93%
    07:00 -8°C° 0.4 mm 6 mps 731 mmHg 93%
    08:00 -6°C° 0.4 mm 6 mps 730 mmHg 94%
    09:00 -6°C° 0.5 mm 6 mps 730 mmHg 94%
    10:00 -5°C° 0.5 mm 6 mps 729 mmHg 95%
    11:00 -4°C° 0.5 mm 5 mps 728 mmHg 95%
    12:00 -4°C° 0.2 mm 5 mps 728 mmHg 94%
    13:00 -2°C° 0.2 mm 5 mps 728 mmHg 93%
    14:00 -1°C° 0.2 mm 5 mps 728 mmHg 92%
    15:00 -2°C° 0 mm 5 mps 728 mmHg 89%
    16:00 -3°C° 0 mm 6 mps 728 mmHg 87%
    17:00 -4°C° 0 mm 6 mps 729 mmHg 85%
    18:00 -4°C° 0 mm 6 mps 729 mmHg 85%
    19:00 -5°C° 0 mm 6 mps 730 mmHg 85%
    20:00 -5°C° 0 mm 6 mps 730 mmHg 85%
    21:00 -5°C° 0 mm 6 mps 730 mmHg 84%
    22:00 -5°C° 0 mm 6 mps 731 mmHg 82%
    23:00 -5°C° 0 mm 6 mps 731 mmHg 81%
    Show more